Location: Unspecified
(25.6470°N, 106.8560°E)
Time: 14:07:15
(UTC+00:00)

Daily predictions for brighter satellites

Satellite Brightness Start Highest point End
(mag) Time Altitude Azimuth Time Altitude Azimuth Time Altitude Azimuth
GOES 2 Rocket 4.0 12:01:20 10° W 12:06:49 73° SSW 12:14:13 10° ESE
FENGYUN 3A 3.9 12:02:13 10° S 12:07:36 77° WSW 12:13:00 10° NNW
Cosmos 1953 2.6 12:06:48 10° N 12:10:44 50° E 12:14:37 10° SSE
Skynet4D Del rocket 3.9 12:06:21 10° W 12:12:07 88° N 12:18:44 10° E
Meteor 2-5 Rocket 4.3 12:08:58 10° SSE 12:14:24 40° E 12:19:45 10° NNE
Cosmos 1758 Rocket 3.7 12:10:34 10° S 12:14:58 85° W 12:19:26 10° N
Cosmos 2219 4.2 12:12:40 10° SW 12:18:06 51° WNW 12:23:34 10° N
Cosmos 2297 Rocket 2.9 12:13:28 10° SSE 12:18:22 31° ESE 12:23:16 10° NE
Cosmos 1733 4.1 12:15:24 10° NNE 12:18:54 31° E 12:22:21 10° SE
Cosmos 2322 3.7 12:13:21 10° NNW 12:19:02 85° ENE 12:24:43 10° SSE
Atlas Centaur 2 1.8 12:22:59 10° W 12:26:35 51° N 12:30:03 10° ENE
Cosmos 1190 Rocket 4.0 12:22:13 10° S 12:27:30 81° ESE 12:32:46 10° NNE
ORS 1 (USA 231) 4.4 12:25:40 10° WNW 12:28:43 89° NNE 12:31:12 14° ESE
Cosmos 676 Rocket 4.3 12:25:56 10° S 12:30:57 46° ESE 12:35:55 10° NNE
Cosmos 1821 Rocket 4.3 12:26:16 10° N 12:32:26 50° E 12:38:33 10° SSE
Cosmos 1707 2.7 12:30:34 10° S 12:34:26 86° E 12:38:20 10° N
Spot 2 Rocket 3.5 12:29:25 10° SSE 12:34:26 73° ENE 12:39:28 10° N
SEDSat Delta rocket 4.1 12:30:54 10° WNW 12:35:03 38° N 12:38:54 10° ENE
Cosmos 2098 4.1 12:37:05 10° N 12:40:20 87° E 12:43:17 10° S
Helios 1A 4.0 12:39:21 16° SE 12:41:57 29° ENE 12:45:32 10° NNE
Cosmos 1939 Rocket 3.7 12:42:29 17° SE 12:44:50 31° ENE 12:48:23 10° NNE
Cosmos 2333 4.2 12:39:49 10° NNW 12:45:26 65° ENE 12:50:07 15° SSE
Palapa 6 Rocket 3.6 12:41:03 10° WSW 12:45:46 40° S 12:48:26 19° ESE
Cosmos 2237 4.4 12:42:00 10° NNW 12:47:40 73° WSW 12:53:18 10° S
ATLAS 5 CENTAUR R/B 2.5 12:44:48 10° S 12:48:35 27° ESE 12:52:32 10° NE
Meteor 1-24 Rocket 4.0 12:44:25 10° SSE 12:50:13 52° E 12:55:55 10° NNE
Cosmos 1934 Rocket 4.1 12:45:25 10° N 12:51:25 54° E 12:56:30 14° SSE
Orbus 7S 3.5 12:49:07 10° W 12:51:43 73° S 12:54:44 20° ESE
Cosmos 2237 Rocket 3.5 12:50:05 10° NNE 12:54:34 24° ENE 12:57:02 18° E
Envisat 2.9 12:54:25 14° SSE 12:58:42 72° ENE 13:03:45 10° N
Helios 1B rocket 2.4 12:55:16 10° N 12:59:25 86° WNW 13:03:32 10° SSW
Cosmos 2227 Rocket 2.4 12:55:27 10° SSW 13:01:04 72° WNW 13:06:43 10° NNE
Cosmos 1727 Rocket 4.1 12:57:44 10° SSE 13:03:51 56° E 13:10:00 10° NNE
Cosmos-2242 3.0 12:59:43 10° N 13:03:59 84° W 13:07:22 16° S
Spot 1 4.2 13:03:12 28° SE 13:04:59 49° ENE 13:08:56 10° N
Meteor 1-16 Rocket 4.4 12:59:16 10° N 13:05:02 63° E 13:09:08 20° SSE
Milstar 3 Cent rocket 3.6 12:58:24 10° W 13:05:13 77° N 13:20:01 10° E
COSMOS 2428 2.9 13:00:24 10° NNW 13:06:06 70° WSW 13:10:47 15° S
Cosmos 1340 Rocket 3.3 13:05:29 31° SE 13:06:34 38° E 13:10:17 10° NNE
Cosmos 1867 4.3 13:06:24 25° SE 13:08:10 30° ESE 13:12:51 10° NE
Lacrosse 4 Rocket 2.8 13:05:16 10° SW 13:09:10 41° WNW 13:13:12 10° N
USA 234 3.8 13:07:26 10° NNE 13:13:52 62° NW 13:20:16 10° SW
Cosmos 2360 Rocket 4.4 13:09:54 10° NW 13:14:00 21° W 13:18:06 10° SSW
SAR-Lupe-4 3.7 13:13:46 43° ESE 13:14:29 52° ENE 13:17:58 10° N
Resurs 01 Rocket 3.5 13:11:08 10° SSW 13:14:54 28° W 13:18:40 10° NW
Sakura Rocket 4.0 13:07:34 10° WSW 13:15:43 75° SSE 13:20:10 18° E
SL-16 R/B 4.0 13:12:57 10° NNE 13:15:51 14° ENE 13:17:02 13° ENE
Meteor 2-15 Rocket 4.4 13:11:28 13° S 13:16:49 67° E 13:22:49 10° NNE
Cosmos 1140 Rocket 3.4 13:12:02 10° SSW 13:17:13 89° WNW 13:22:24 10° NNE
In-Cosmos 22 4.1 13:18:08 15° S 13:22:44 76° E 13:28:28 10° N
ARGOS 4.2 13:25:47 26° E 13:26:38 27° ENE 13:31:05 10° NNE
Cosmos 2221 4.0 13:23:57 10° NNE 13:26:56 23° ENE 13:26:56 23° ENE
Cosmos 2333 Rocket 2.1 13:26:36 10° NNW 13:32:17 87° ENE 13:34:31 38° SSE
SAR-Lupe-1 3.9 13:33:23 80° SE 13:33:33 85° ENE 13:37:08 10° N
ATLAS 2AS CENTAUR R/B 3.7 13:27:17 10° NW 13:34:25 43° WSW 13:39:27 17° S
SWIFT 3.8 13:33:18 10° WSW 13:36:15 25° SSW 13:36:15 25° SSW
H-2A R/B 3.6 13:38:05 21° ENE 13:38:05 21° ENE 13:41:56 10° NNE
Cosmos 1850 Rocket 3.8 13:35:27 28° S 13:38:10 79° ESE 13:43:21 10° NNE
Cosmos 1184 Rocket 3.5 13:38:21 45° WSW 13:38:53 51° W 13:42:09 10° N
Cosmos 2219 Rocket 2.5 13:34:46 10° NNW 13:40:20 60° WSW 13:42:54 31° S
NOAA 11 4.2 13:41:04 48° ESE 13:42:13 59° ENE 13:47:32 10° N
Cosmos 1153 Rocket 4.5 13:38:58 10° N 13:45:22 72° E 13:47:27 44° SSE
Aureole 2 Rocket 2.9 13:47:05 10° NNW 13:50:53 67° W 13:50:53 67° W
OAO 3 Rocket 3.0 13:53:16 10° WNW 13:57:55 84° N 13:57:55 84° N
Cosmos 1741 Rocket 4.4 13:57:41 24° SSW 14:00:51 62° WNW 14:06:07 10° N
YAOGAN 6 4.3 14:02:06 27° W 14:02:14 27° W 14:05:21 10° NW
Cosmos 2297 Rocket 4.4 13:57:49 10° WSW 14:02:18 24° WNW 14:06:49 10° NNW
ERS-1 Rocket 3.0 14:01:38 61° SSW 14:02:21 71° WSW 14:07:22 10° NNW
Skynet4D Del rocket 4.0 13:58:46 10° W 14:05:04 83° N 14:07:06 49° E
Cosmos 1674 3.9 14:07:56 39° NNW 14:07:56 39° NNW 14:10:27 10° N
Atlas Centaur 2 2.9 14:12:06 10° WNW 14:14:18 29° NW 14:14:18 29° NW
SPOT 5 3.1 14:16:31 60° N 14:16:31 60° N 14:20:31 10° N
Cosmos 2061 Rocket 4.0 14:10:02 10° N 14:16:22 65° E 14:16:29 64° E
SEDSat Delta rocket 4.3 14:17:15 10° WNW 14:19:47 35° WNW 14:19:47 35° WNW
DELTA 2 R/B (1) 3.8 14:16:28 10° WNW 14:21:26 61° WSW 14:21:26 61° WSW
Cosmos 2100 Rocket 3.9 14:16:59 10° N 14:23:18 89° W 14:23:46 79° S
SL-08 RB Rocket 4.5 14:25:11 48° N 14:25:11 48° N 14:28:29 10° NNW
Cosmos 2123 Rocket 4.1 14:27:39 62° NE 14:27:39 62° NE 14:33:04 10° NNE
Cosmos 1459 Rocket 3.9 14:24:16 10° N 14:30:34 84° W 14:30:42 83° WSW
SPOT 1/Viking Rocket 4.0 14:33:33 57° N 14:33:33 57° N 14:37:37 10° N
ATLAS 5 CENTAUR R/B 4.1 14:29:43 10° WSW 14:33:08 21° NW 14:36:43 10° N
Cosmos 2237 Rocket 3.4 14:33:38 10° NW 14:38:30 31° WSW 14:38:53 31° WSW
Cosmos 2173 Rocket 4.1 14:34:29 10° N 14:40:36 69° W 14:40:38 69° W
Cosmos 1802 Rocket 4.2 14:45:54 10° NNW 14:51:31 63° WNW 14:51:31 63° WNW
H-2A ROCKET BODY 3.2 14:53:48 60° ENE 14:53:48 60° ENE 15:09:47 10° ENE
Cosmos 1725 Rocket 4.4 14:53:31 10° N 14:58:21 56° N 14:58:21 56° N
SL-16 R/B 3.1 14:54:42 10° NNW 14:58:55 45° WNW 14:58:55 45° WNW
Terra 3.8 15:16:33 26° NNW 15:16:33 26° NNW 15:18:37 10° NNW
H-2A R/B 3.8 15:18:42 28° WNW 15:18:42 28° WNW 15:21:54 10° NW
IUS-18 SRM-1 4.3 14:42:45 10° W 15:19:48 87° N 15:20:25 79° E
Milstar 3 Cent rocket 4.5 15:35:28 10° WNW 15:46:36 72° SSW 15:49:31 64° SSE
Cosmos 2263 Rocket 4.2 16:04:24 24° NNW 16:04:24 24° NNW 16:07:05 10° N
Lacrosse 5 4.5 16:07:03 10° NNW 16:08:13 17° NNW 16:08:13 17° NNW
Cosmos 2278 Rocket 4.3 17:24:55 22° NNE 17:24:55 22° NNE 17:26:52 10° NNE
ATLAS 3B R/B 3.8 17:56:12 39° ENE 17:56:12 39° ENE 18:01:11 10° NE
USA 238 DEB 3.9 18:42:43 67° NE 18:42:43 67° NE 18:48:45 10° NNE
USA 238 3.9 18:42:48 67° ENE 18:42:48 67° ENE 18:48:51 10° NNE
Resurs 1-4 Rocket 2.9 18:52:18 10° NNE 18:56:19 48° NE 18:56:19 48° NE
CZ-2D R/B 2.6 19:02:17 10° NNE 19:06:42 60° NNE 19:06:42 60° NNE
Milstar 3 3.7 19:09:44 51° S 19:10:53 53° SSE 19:24:32 10° ENE
Cosmos 2369 Rocket 2.8 19:16:39 45° ESE 19:16:44 45° ESE 19:22:03 10° NNE
Cosmos 1943 Rocket 3.9 19:19:00 21° SE 19:20:29 24° ESE 19:24:53 10° NE
NOSS 3-2 (C) 3.8 19:21:18 48° SE 19:21:39 49° ESE 19:27:33 10° NE
NOSS 3-2 (A) 3.3 19:23:21 72° ESE 19:23:25 73° ESE 19:29:36 10° NNE
Cosmos 1125 Rocket 3.8 19:25:04 63° E 19:25:04 63° E 19:30:07 10° NNE
Cosmos 1833 Rocket 2.8 19:20:11 10° NNW 19:24:57 64° NNW 19:24:57 64° NNW
Meteor 1-14 Rocket 4.3 19:26:18 72° NW 19:26:18 72° NW 19:31:54 10° N
SeaSat 1 4.5 19:30:54 16° NW 19:30:54 16° NW 19:32:00 10° NW
USA 267 3.6 19:21:40 10° NNE 19:27:57 52° NW 19:29:00 48° WNW
Meteor 1-25 Rocket 4.1 19:30:33 87° NE 19:30:33 87° NE 19:36:06 10° N
ARIANE 5 R/B 3.0 19:29:28 10° N 19:33:28 49° NW 19:33:28 49° NW
Exosat Rocket 4.3 19:34:07 10° NNW 19:40:14 67° WSW 19:42:39 45° S
IRS-1D 4.3 19:36:33 10° N 19:40:27 38° NW 19:40:27 38° NW
Cosmos 1975 Rocket 3.3 19:38:13 10° N 19:42:16 64° ENE 19:42:16 64° ENE
MOS 1 Rocket 3.4 19:37:32 10° N 19:42:52 90° ESE 19:43:07 82° S
ATLAS 3B R/B 4.0 19:43:27 26° WNW 19:45:00 28° NW 19:51:08 10° N
Cosmos 1633 3.7 19:45:53 43° NE 19:45:53 43° NE 19:48:36 10° NNE
Cosmos 1553 Rocket 4.0 19:38:42 10° N 19:45:07 87° E 19:47:21 44° S
ADEOS Rocket 4.1 19:38:33 10° N 19:45:10 35° WNW 19:46:03 34° W
CCE 1 Rocket 3.9 19:45:36 54° NNE 19:45:36 54° NNE 19:49:08 10° E
CENTAUR R/B 4.3 19:42:52 13° SE 19:45:58 19° ESE 19:50:09 10° ENE
Cosmos 2082 Rocket 2.9 19:41:58 10° NNW 19:45:44 37° WNW 19:45:44 37° WNW
Gbstr 26 Del rocket 3.3 19:51:18 52° NE 19:51:18 52° NE 19:54:11 10° NE
UNKNOWN OBJECT B 3.8 19:51:52 10° N 19:54:19 37° NNW 19:54:19 37° NNW
ADEOS II 3.5 19:51:28 10° NE 19:56:09 32° E 19:59:39 16° SSE
SL-16 R/B 2.7 19:59:43 46° WSW 20:00:05 47° W 20:06:03 10° NNW
Cosmos 372 Rocket 4.2 20:10:23 47° WSW 20:11:11 52° WNW 20:16:15 10° N
Meteor 1-11 Rocket 3.9 20:11:16 25° S 20:14:39 69° E 20:20:22 10° NNE
GPS 2-05 Rocket1 4.2 20:14:36 21° NW 20:16:21 37° NNE 20:19:37 10° E
Cosmos 1536 3.8 20:15:21 22° SSE 20:17:28 43° E 20:21:15 10° NNE
Cosmos 2344 4.0 20:15:32 31° WSW 20:18:50 46° WNW 20:26:27 10° NNE
GPS 2-12 Rocket1 4.0 20:20:39 30° S 20:20:39 30° S 20:23:50 10° SE
Cosmos 405 Rocket 2.7 20:16:39 10° N 20:20:36 85° E 20:22:03 37° S
Centaur D AC-29 0.9 20:20:15 54° SSW 20:20:49 64° SSE 20:26:48 10° E
Okean 2 Rocket 4.5 20:22:58 23° WNW 20:22:58 23° WNW 20:25:56 10° NNW
Cosmos 468 4.4 20:17:07 10° NNW 20:22:27 90° WSW 20:27:43 10° SSE
CZ-4B R/B 4.3 20:18:26 10° NNE 20:23:44 43° E 20:29:03 10° S
Okean 1 Rocket 4.0 20:21:47 15° SSE 20:25:17 47° E 20:29:34 10° NNE
Cosmos 1812 4.3 20:24:09 10° NW 20:26:03 21° WNW 20:26:03 21° WNW
Cosmos 158 Rocket 3.9 20:31:27 10° NNW 20:36:30 81° ENE 20:41:25 10° SSE
Resurs 1-4 Rocket 4.2 20:35:30 10° NW 20:36:47 11° WNW 20:37:24 11° WNW
Cosmos 1602 4.4 20:37:03 34° W 20:37:30 35° W 20:41:07 10° NNW
Cosmos 2315 Rocket 4.0 20:33:45 10° N 20:40:03 84° E 20:46:17 10° S
COSMOS 2455 3.1 20:37:49 27° SW 20:40:55 52° WNW 20:46:47 10° NNE
USA 161 3.0 20:46:17 17° NW 20:46:17 17° NW 20:47:04 10° NNW
CZ-3B DEB 3.8 20:33:42 10° NW 20:46:37 88° WSW 20:55:36 10° SE
Cosmos 1048 Rocket 4.0 20:41:19 10° NNW 20:46:42 76° WSW 20:52:01 10° S
Delta 2 Rocket 3.8 20:41:57 10° WNW 20:46:47 68° NNE 20:50:58 10° ESE
PSLV R/B 3.8 20:43:50 10° N 20:47:26 52° WNW 20:49:08 28° SW
Cosmos 1300 Rocket 3.7 20:46:01 24° SSW 20:48:26 53° W 20:52:47 10° N
ASTRO E2 3.6 20:48:55 16° WNW 20:51:44 43° N 20:55:33 10° ENE
Okean O Rocket 1.7 20:54:07 10° N 20:58:25 58° WNW 21:01:58 15° SSW
CZ-4B R/B 3.1 20:56:44 10° N 21:00:12 42° WNW 21:02:20 20° SW
DNEPR-1 R/B 4.3 20:54:38 12° SSW 21:00:22 79° ESE 21:05:30 10° NNE
Meteor 1-19 Rocket 4.2 20:54:50 10° NNW 21:00:24 67° W 21:06:03 10° S
Cosmos 2369 Rocket 3.9 20:58:28 13° W 21:00:53 17° WNW 21:04:25 10° NNW
Cosmos 1943 Rocket 3.1 21:00:33 18° WSW 21:03:57 31° WNW 21:08:55 10° N
Molniya-1 2.3 21:03:25 31° SSW 21:04:10 76° ESE 21:05:51 10° NNE
Delta 128 4.4 20:59:58 14° W 21:06:06 84° N 21:11:55 10° ENE
Landsat 4 4.0 21:14:32 10° S 21:18:13 47° W 21:21:54 10° NNW
Cosmos 1656 Rocket 4.0 21:23:43 10° SW 21:28:52 45° WNW 21:34:02 10° N
Nadezhda 1 Rocket 4.4 21:26:18 10° N 21:32:23 69° E 21:38:24 10° SSE
GPS 2-18 Rocket1 3.8 21:29:23 10° WSW 21:32:49 35° S 21:36:19 10° ESE
EO 1 Del DPAF 3.3 21:30:23 10° SSE 21:34:12 84° ENE 21:38:02 10° N
ADEOS II 3.5 21:31:45 10° NNW 21:35:36 21° WNW 21:39:26 10° WSW
ATLAS 2A CENTAUR R/B 2.9 21:33:54 10° SSW 21:35:43 15° SSE 21:37:05 10° SE
CENTAUR R/B 3.0 21:30:31 10° SW 21:35:59 43° WNW 21:42:05 10° NNE
NATO 3D Rocket 4.1 21:33:17 10° SW 21:37:56 36° S 21:42:13 10° ESE
Cosmos 1745 Rocket 4.3 21:35:34 10° SSW 21:41:42 51° W 21:47:51 10° N
